This is the latest recevied weather packets stored in our database for station/object GW4003. If no packets are shown the sender has not sent any weather packets the latest 10 day(s).
| Time | Temp. | Humidity | Pressure | Rain* | Wind** | Luminosity | Snow |
|---|---|---|---|---|---|---|---|
| 1777911251 | 20° C | 25% | 1010.4 hPa | 0 mm | - | - | - |
| 1777910947 | 20° C | 26% | 1010.6 hPa | 0 mm | - | - | - |
| 1777910644 | 19.44° C | 26% | 1010.6 hPa | 0 mm | - | - | - |
| 1777910341 | 18.89° C | 29% | 1010.6 hPa | 0 mm | - | - | - |
| 1777910038 | 18.33° C | 28% | 1010.5 hPa | 0 mm | - | - | - |
| 1777909735 | 17.78° C | 30% | 1010.6 hPa | 0 mm | - | - | - |
| 1777909431 | 17.78° C | 28% | 1010.6 hPa | 0 mm | - | - | - |
| 1777909127 | 17.22° C | 30% | 1010.7 hPa | 0 mm | - | - | - |
| 1777908824 | 16.67° C | 31% | 1010.7 hPa | 0 mm | - | - | - |
| 1777908521 | 16.67° C | 32% | 1010.6 hPa | 0 mm | - | - | - |
| 1777908218 | 16.11° C | 32% | 1010.7 hPa | 0 mm | - | - | - |
| 1777907915 | 16.11° C | 33% | 1010.8 hPa | 0 mm | - | - | - |
| 1777907611 | 15.56° C | 33% | 1010.9 hPa | 0 mm | - | - | - |
| 1777907308 | 15.56° C | 36% | 1010.9 hPa | 0 mm | - | - | - |
| 1777907005 | 15° C | 35% | 1011 hPa | 0 mm | - | - | - |
| 1777906702 | 15° C | 36% | 1010.9 hPa | 0 mm | - | - | - |
| 1777906398 | 15° C | 35% | 1010.9 hPa | 0 mm | - | - | - |
| 1777906095 | 14.44° C | 37% | 1010.9 hPa | 0 mm | - | - | - |
| 1777905792 | 13.33° C | 39% | 1010.9 hPa | 0 mm | - | - | - |
| 1777905489 | 12.78° C | 42% | 1011 hPa | 0 mm | - | - | - |
| 1777905185 | 12.22° C | 41% | 1010.9 hPa | 0 mm | - | - | - |
| 1777904882 | 12.22° C | 42% | 1010.9 hPa | 0 mm | - | - | - |
| 1777904579 | 11.67° C | 42% | 1010.9 hPa | 0 mm | - | - | - |
| 1777904276 | 11.67° C | 41% | 1011 hPa | 0 mm | - | - | - |
| 1777903973 | 11.67° C | 41% | 1010.9 hPa | 0 mm | - | - | - |
* Rain latest hour (hover to see other rain measurements)
** Current wind speed in m/s (hover to see current wind gust speed)